Weather History for Saglek, NL

Change the Weather History Date:

Thursday, July 4, 2013

  Actual Average Record
Temperature  
Mean Temperature 32 °F -  
Max Temperature 35 °F - - ()
Min Temperature 28 °F - - ()
Degree Days  
Heating Degree Days 34    
Moisture  
Dew Point -    
Average Humidity    
Maximum Humidity    
Minimum Humidity    
Precipitation  
Precipitation 0.00 in - - ()
Sea Level Pressure  
Sea Level Pressure 29.55 in    
Wind  
Wind Speed - ()    
Max Wind Speed -    
Max Gust Speed -    
Visibility 4.3 miles    
Events      
T = Trace of Precipitation, MM = Missing Value Source: Averaged Metar Reports

Daily Weather History Graph

Daily Weather History Graph

Search for Another Location

Airport:

Trip Planner

Search our weather history database for the weather conditions in past years. The results will help you decide how hot, cold, wet, or windy it might be!

Date:

Astronomy

Jul. 04, 2013 Rise Set
Actual Time 4:12 AM ADT 10:16 PM ADT
Civil Twilight 2:58 AM ADT 11:29 PM ADT
Nautical Twilight Sun does not rise Sun does not rise
Astronomical Twilight Sun does not rise Sun does not rise
Moon 1:52 AM ADT (7/4) 6:56 PM ADT (7/4)
Length of Visible Light 20h 31m
Length of Day
18h 03m
Waning Crescent, 12% of the Moon is Illuminated
Jul 4
Waning Crescent
Jul 8
New
Jul 16
First Quarter
Jul 22
Full
Jul 29
Last Quarter

Hourly Weather History & Observations

Time (ADT) Temp. Dew Point Humidity Pressure Visibility Wind Dir Wind Speed Gust Speed Precip Events Conditions
12:00 AM 30.2 °F - N/A% 29.51 in 0.1 mi North - - N/A   Unknown
1:00 AM 30.2 °F - N/A% 29.52 in 0.1 mi North - - N/A   Unknown
1:14 AM 32.0 °F - N/A% 29.46 in 0.5 mi North - - N/A   Unknown
1:16 AM 32.0 °F - N/A% 29.46 in 1.5 mi North - - N/A   Unknown
1:18 AM 30.2 °F - N/A% 29.46 in 1.4 mi North - - N/A   Unknown
1:19 AM 30.2 °F - N/A% 29.46 in 1.0 mi North - - N/A   Unknown
1:20 AM 30.2 °F - N/A% 29.46 in 0.6 mi North - - N/A   Unknown
1:24 AM 30.2 °F - N/A% 29.46 in 0.4 mi North - - N/A   Unknown
1:27 AM 30.2 °F - N/A% 29.47 in 0.1 mi North - - N/A   Unknown
1:59 AM 30.2 °F - N/A% 29.47 in 0.2 mi North - - N/A   Unknown
2:00 AM 30.2 °F - N/A% 29.54 in 0.2 mi North - - N/A   Unknown
2:17 AM 30.2 °F - N/A% 29.48 in 0.8 mi North - - N/A   Unknown
2:21 AM 32.0 °F - N/A% 29.48 in 1.6 mi North - - N/A   Unknown
2:32 AM 32.0 °F - N/A% 29.49 in 9.0 mi North - - N/A   Unknown
2:39 AM 32.0 °F - N/A% 29.49 in 9.0 mi North - - N/A   Unknown
3:00 AM 32.0 °F - N/A% 29.57 in 9.0 mi North - - N/A   Unknown
3:15 AM 30.2 °F - N/A% 29.50 in 2.6 mi North - - N/A   Unknown
3:16 AM 30.2 °F - N/A% 29.50 in 1.1 mi North - - N/A   Unknown
3:17 AM 30.2 °F - N/A% 29.50 in 0.6 mi North - - N/A   Unknown
3:18 AM 30.2 °F - N/A% 29.51 in 0.4 mi North - - N/A   Unknown
3:20 AM 30.2 °F - N/A% 29.51 in 0.1 mi North - - N/A   Unknown
3:33 AM 30.2 °F - N/A% 29.51 in 0.1 mi North - - N/A   Unknown
3:36 AM 30.2 °F - N/A% 29.51 in 0.6 mi North - - N/A   Unknown
3:38 AM 30.2 °F - N/A% 29.51 in 1.8 mi North - - N/A   Unknown
3:48 AM 30.2 °F - N/A% 29.51 in 9.0 mi North - - N/A   Unknown
4:00 AM 30.2 °F - N/A% 29.60 in 9.0 mi North - - N/A   Unknown
4:08 AM 30.2 °F - N/A% 29.52 in 9.0 mi North - - N/A   Unknown
4:52 AM 30.2 °F - N/A% 29.52 in 2.4 mi North - - N/A   Unknown
4:53 AM 30.2 °F - N/A% 29.52 in 1.0 mi North - - N/A   Unknown
4:54 AM 30.2 °F - N/A% 29.53 in 0.6 mi North - - N/A   Unknown
4:55 AM 30.2 °F - N/A% 29.53 in 0.4 mi North - - N/A   Unknown
5:00 AM 30.2 °F - N/A% 29.60 in 0.2 mi North - - N/A   Unknown
5:08 AM 32.0 °F - N/A% 29.53 in 3.0 mi North - - N/A   Unknown
5:13 AM 30.2 °F - N/A% 29.52 in 2.1 mi North - - N/A   Unknown
5:14 AM 30.2 °F - N/A% 29.52 in 1.0 mi North - - N/A   Unknown
5:15 AM 30.2 °F - N/A% 29.53 in 0.6 mi North - - N/A   Unknown
5:16 AM 30.2 °F - N/A% 29.53 in 0.4 mi North - - N/A   Unknown
5:32 AM 28.4 °F - N/A% 29.53 in 0.1 mi North - - N/A   Unknown
5:33 AM 28.4 °F - N/A% 29.53 in 0.1 mi North - - N/A   Unknown
5:44 AM 30.2 °F - N/A% 29.53 in 0.6 mi North - - N/A   Unknown
5:46 AM 30.2 °F - N/A% 29.53 in 3.0 mi North - - N/A   Unknown
6:00 AM 32.0 °F - N/A% 29.61 in 9.0 mi North - - N/A   Unknown
6:16 AM 30.2 °F - N/A% 29.54 in 9.0 mi North - - N/A   Unknown
7:00 AM 32.0 °F - N/A% 29.55 in 9.0 mi North - - N/A   Unknown
8:00 AM 32.0 °F - N/A% 29.54 in 9.0 mi North - - N/A   Unknown
9:00 AM 32.0 °F - N/A% 29.55 in 9.0 mi North - - N/A   Unknown
10:00 AM 35.6 °F - N/A% 29.63 in 9.0 mi North - - N/A   Unknown
11:00 AM 33.8 °F - N/A% 29.65 in 9.0 mi North - - N/A   Unknown
12:00 PM 35.6 °F - N/A% 29.66 in 9.0 mi North - - N/A   Unknown
1:00 PM 35.6 °F - N/A% 29.65 in 9.0 mi North - - N/A   Unknown
2:00 PM 35.6 °F - N/A% 29.65 in 9.0 mi North - - N/A   Unknown
3:00 PM 33.8 °F - N/A% 29.67 in 9.0 mi North - - N/A   Unknown
4:00 PM 33.8 °F - N/A% 29.68 in 9.0 mi North - - N/A   Unknown
5:00 PM 32.0 °F - N/A% 29.69 in 9.0 mi North - - N/A   Unknown
6:00 PM 32.0 °F - N/A% 29.69 in 9.0 mi North - - N/A   Unknown
7:00 PM 30.2 °F - N/A% 29.70 in 9.0 mi North - - N/A   Unknown
8:00 PM 32.0 °F - N/A% 29.70 in 9.0 mi North - - N/A   Unknown
9:00 PM 33.8 °F - N/A% 29.69 in 9.0 mi North - - N/A   Unknown
10:00 PM 33.8 °F - N/A% 29.68 in 9.0 mi North - - N/A   Unknown
11:00 PM 33.8 °F - N/A% 29.67 in 9.0 mi North - - N/A   Unknown